timestamp,wind_dir_avg,wind_spd_max_dir,wind_spd_avg,wind_spd_gust,battery_voltage,lat,long
2017-11-25 00:00:00+00:00,259.0,261.0,8.87,10.55,,47.59359,-54.27349
2017-11-25 00:10:00+00:00,266.0,272.0,7.94,9.12,,47.59359,-54.27349
2017-11-25 00:20:00+00:00,266.0,270.0,8.03,8.97,,47.59359,-54.27349
2017-11-25 00:30:00+00:00,266.0,269.0,6.64,7.48,,47.59359,-54.27349
2017-11-25 00:40:00+00:00,294.0,294.0,6.49,7.73,,47.59359,-54.27349
2017-11-25 00:50:00+00:00,293.0,305.0,5.25,6.12,,47.59359,-54.27349
2017-11-25 01:00:00+00:00,297.0,296.0,7.24,8.7,,47.59359,-54.27349
2017-11-25 01:10:00+00:00,309.0,304.0,7.02,8.64,,47.59359,-54.27349
2017-11-25 01:20:00+00:00,305.0,299.0,5.77,7.28,,47.59359,-54.27349
2017-11-25 01:30:00+00:00,287.0,290.0,6.81,8.07,,47.59359,-54.27349
2017-11-25 01:40:00+00:00,291.0,292.0,9.17,11.55,,47.59359,-54.27349
2017-11-25 01:50:00+00:00,295.0,291.0,7.96,9.26,,47.59359,-54.27349
2017-11-25 02:00:00+00:00,290.0,291.0,6.23,7.62,,47.59359,-54.27349
2017-11-25 02:10:00+00:00,295.0,292.0,5.91,6.76,,47.59359,-54.27349
2017-11-25 02:20:00+00:00,285.0,279.0,7.08,8.31,,47.59359,-54.27349
2017-11-25 02:30:00+00:00,287.0,294.0,6.32,7.37,,47.59359,-54.27349
2017-11-25 02:40:00+00:00,299.0,294.0,8.59,9.58,,47.59359,-54.27349
2017-11-25 02:50:00+00:00,302.0,295.0,7.58,8.94,,47.59359,-54.27349
2017-11-25 03:00:00+00:00,307.0,310.0,7.44,8.4,,47.59359,-54.27349
2017-11-25 03:10:00+00:00,304.0,305.0,6.21,6.83,,47.59359,-54.27349
2017-11-25 03:20:00+00:00,308.0,309.0,5.71,6.69,,47.59359,-54.27349
2017-11-25 03:30:00+00:00,330.0,331.0,5.42,6.46,,47.59359,-54.27349
2017-11-25 03:40:00+00:00,330.0,322.0,4.07,4.92,,47.59359,-54.27349
2017-11-25 03:50:00+00:00,318.0,307.0,3.69,4.9,,47.59359,-54.27349
2017-11-25 04:00:00+00:00,314.0,321.0,4.36,5.36,,47.59359,-54.27349
2017-11-25 04:10:00+00:00,310.0,321.0,4.83,5.53,,47.59359,-54.27349
2017-11-25 04:20:00+00:00,311.0,309.0,5.57,6.58,,47.59359,-54.27349
2017-11-25 04:30:00+00:00,297.0,297.0,5.9,6.99,,47.59359,-54.27349
2017-11-25 04:40:00+00:00,308.0,311.0,5.94,6.76,,47.59359,-54.27349
2017-11-25 04:50:00+00:00,313.0,302.0,4.78,5.53,,47.59359,-54.27349
2017-11-25 05:00:00+00:00,305.0,311.0,6.56,7.17,,47.59359,-54.27349
2017-11-25 05:10:00+00:00,306.0,308.0,5.72,6.51,,47.59359,-54.27349
2017-11-25 05:20:00+00:00,314.0,309.0,5.02,6.26,,47.59359,-54.27349
2017-11-25 05:30:00+00:00,306.0,304.0,5.08,6.45,,47.59359,-54.27349
2017-11-25 05:40:00+00:00,319.0,322.0,4.82,5.4,,47.59359,-54.27349
2017-11-25 05:50:00+00:00,328.0,325.0,4.57,5.42,,47.59359,-54.27349
2017-11-25 06:00:00+00:00,328.0,334.0,4.6,5.07,,47.59359,-54.27349
2017-11-25 06:10:00+00:00,329.0,326.0,5.83,6.57,,47.59359,-54.27349
2017-11-25 06:20:00+00:00,312.0,317.0,6.41,7.02,,47.59359,-54.27349
2017-11-25 06:30:00+00:00,314.0,310.0,6.1,6.77,,47.59359,-54.27349
2017-11-25 06:40:00+00:00,316.0,316.0,5.19,6.19,,47.59359,-54.27349
2017-11-25 06:50:00+00:00,310.0,314.0,5.09,5.83,,47.59359,-54.27349
2017-11-25 07:00:00+00:00,316.0,312.0,4.96,5.72,,47.59359,-54.27349
2017-11-25 07:10:00+00:00,301.0,308.0,4.2,5.13,,47.59359,-54.27349
2017-11-25 07:20:00+00:00,297.0,298.0,5.79,6.76,,47.59359,-54.27349
2017-11-25 07:30:00+00:00,301.0,294.0,5.33,6.5,,47.59359,-54.27349
2017-11-25 07:40:00+00:00,281.0,281.0,5.3,5.97,,47.59359,-54.27349
2017-11-25 07:50:00+00:00,293.0,284.0,5.8,7.69,,47.59359,-54.27349
2017-11-25 08:00:00+00:00,292.0,296.0,4.58,5.41,,47.59359,-54.27349
2017-11-25 08:10:00+00:00,291.0,306.0,4.55,5.76,,47.59359,-54.27349
2017-11-25 08:20:00+00:00,283.0,283.0,4.49,5.29,,47.59359,-54.27349
2017-11-25 08:30:00+00:00,279.0,295.0,3.36,3.68,,47.59359,-54.27349
2017-11-25 08:40:00+00:00,285.0,287.0,4.12,5.0,,47.59359,-54.27349
2017-11-25 08:50:00+00:00,287.0,293.0,3.3,3.68,,47.59359,-54.27349
2017-11-25 09:00:00+00:00,282.0,291.0,3.94,4.63,,47.59359,-54.27349
2017-11-25 09:10:00+00:00,272.0,282.0,3.55,4.4,,47.59359,-54.27349
2017-11-25 09:20:00+00:00,283.0,288.0,2.91,3.4,,47.59359,-54.27349
2017-11-25 09:30:00+00:00,263.0,265.0,3.0,3.39,,47.59359,-54.27349
2017-11-25 09:40:00+00:00,277.0,283.0,3.65,4.09,,47.59359,-54.27349
2017-11-25 09:50:00+00:00,287.0,289.0,3.21,3.61,,47.59359,-54.27349
2017-11-25 10:00:00+00:00,287.0,287.0,3.45,3.78,,47.59359,-54.27349
2017-11-25 10:10:00+00:00,283.0,277.0,3.01,3.65,,47.59359,-54.27349
2017-11-25 10:20:00+00:00,291.0,292.0,2.75,3.03,,47.59359,-54.27349
2017-11-25 10:30:00+00:00,287.0,290.0,2.19,2.82,,47.59359,-54.27349
2017-11-25 10:40:00+00:00,288.0,287.0,1.79,2.31,,47.59359,-54.27349
2017-11-25 10:50:00+00:00,296.0,291.0,2.61,2.95,,47.59359,-54.27349
2017-11-25 11:00:00+00:00,281.0,282.0,2.81,3.39,,47.59359,-54.27349
2017-11-25 11:10:00+00:00,277.0,288.0,3.54,4.1,,47.59359,-54.27349
2017-11-25 11:20:00+00:00,277.0,281.0,1.93,2.31,,47.59359,-54.27349
2017-11-25 11:30:00+00:00,294.0,290.0,2.0,2.45,,47.59359,-54.27349
2017-11-25 11:40:00+00:00,235.0,239.0,1.2,1.71,,47.59359,-54.27349
2017-11-25 11:50:00+00:00,251.0,263.0,2.06,2.47,,47.59359,-54.27349
2017-11-25 12:00:00+00:00,213.0,225.0,2.09,2.7,,47.59359,-54.27349
2017-11-25 12:10:00+00:00,227.0,234.0,2.33,2.85,,47.59359,-54.27349
2017-11-25 12:20:00+00:00,229.0,231.0,2.28,3.13,,47.59359,-54.27349
2017-11-25 12:30:00+00:00,221.0,229.0,2.79,3.76,,47.59359,-54.27349
2017-11-25 12:40:00+00:00,202.0,209.0,2.13,2.64,,47.59359,-54.27349
2017-11-25 12:50:00+00:00,215.0,217.0,3.76,4.15,,47.59359,-54.27349
2017-11-25 13:00:00+00:00,192.0,198.0,3.59,4.07,,47.59359,-54.27349
2017-11-25 13:10:00+00:00,191.0,192.0,2.52,3.04,,47.59359,-54.27349
2017-11-25 13:20:00+00:00,226.0,228.0,3.72,4.27,,47.59359,-54.27349
2017-11-25 13:30:00+00:00,221.0,226.0,5.02,5.63,,47.59359,-54.27349
2017-11-25 13:40:00+00:00,211.0,209.0,4.41,5.26,,47.59359,-54.27349
2017-11-25 13:50:00+00:00,209.0,210.0,5.08,5.54,,47.59359,-54.27349
2017-11-25 14:00:00+00:00,218.0,219.0,5.94,6.71,,47.59359,-54.27349
2017-11-25 14:10:00+00:00,225.0,226.0,7.1,7.87,,47.59359,-54.27349
2017-11-25 14:20:00+00:00,223.0,223.0,8.72,9.85,,47.59359,-54.27349
2017-11-25 14:30:00+00:00,225.0,219.0,8.4,9.46,,47.59359,-54.27349
2017-11-25 14:40:00+00:00,218.0,220.0,9.03,10.15,,47.59359,-54.27349
2017-11-25 14:50:00+00:00,217.0,221.0,8.6,9.44,,47.59359,-54.27349
2017-11-25 15:00:00+00:00,217.0,211.0,9.61,11.27,,47.59359,-54.27349
2017-11-25 15:10:00+00:00,205.0,199.0,8.81,10.44,,47.59359,-54.27349
2017-11-25 15:20:00+00:00,208.0,210.0,9.49,10.47,,47.59359,-54.27349
2017-11-25 15:30:00+00:00,206.0,200.0,8.86,10.15,,47.59359,-54.27349
2017-11-25 15:40:00+00:00,215.0,214.0,9.72,11.0,,47.59359,-54.27349
2017-11-25 15:50:00+00:00,217.0,215.0,10.25,11.19,,47.59359,-54.27349
2017-11-25 16:00:00+00:00,217.0,219.0,9.71,11.11,,47.59359,-54.27349
2017-11-25 16:10:00+00:00,220.0,222.0,10.68,12.0,,47.59359,-54.27349
2017-11-25 16:20:00+00:00,226.0,229.0,11.04,12.73,,47.59359,-54.27349
2017-11-25 16:30:00+00:00,226.0,219.0,11.75,13.71,,47.59359,-54.27349
2017-11-25 16:40:00+00:00,228.0,231.0,11.16,13.28,,47.59359,-54.27349
2017-11-25 16:50:00+00:00,234.0,238.0,10.3,12.08,,47.59359,-54.27349
2017-11-25 17:00:00+00:00,225.0,230.0,11.49,12.91,,47.59359,-54.27349
2017-11-25 17:10:00+00:00,228.0,229.0,11.76,13.26,,47.59359,-54.27349
2017-11-25 17:20:00+00:00,227.0,225.0,10.29,11.97,,47.59359,-54.27349
2017-11-25 17:30:00+00:00,224.0,230.0,11.25,13.76,,47.59359,-54.27349
2017-11-25 17:40:00+00:00,228.0,228.0,10.59,12.02,,47.59359,-54.27349
2017-11-25 17:50:00+00:00,230.0,233.0,10.06,12.16,,47.59359,-54.27349
2017-11-25 18:00:00+00:00,226.0,219.0,9.54,11.08,,47.59359,-54.27349
2017-11-25 18:10:00+00:00,227.0,226.0,9.69,11.52,,47.59359,-54.27349
2017-11-25 18:20:00+00:00,228.0,234.0,9.39,10.65,,47.59359,-54.27349
2017-11-25 18:30:00+00:00,230.0,227.0,9.18,11.18,,47.59359,-54.27349
2017-11-25 18:40:00+00:00,227.0,228.0,10.24,11.41,,47.59359,-54.27349
2017-11-25 18:50:00+00:00,227.0,228.0,10.85,12.38,,47.59359,-54.27349
2017-11-25 19:00:00+00:00,216.0,218.0,9.37,10.49,,47.59359,-54.27349
2017-11-25 19:10:00+00:00,220.0,220.0,8.55,9.81,,47.59359,-54.27349
2017-11-25 19:20:00+00:00,226.0,226.0,9.45,10.89,,47.59359,-54.27349
2017-11-25 19:30:00+00:00,223.0,227.0,10.01,11.19,,47.59359,-54.27349
2017-11-25 19:40:00+00:00,221.0,222.0,10.88,12.85,,47.59359,-54.27349
2017-11-25 19:50:00+00:00,221.0,226.0,10.42,11.69,,47.59359,-54.27349
2017-11-25 20:00:00+00:00,222.0,224.0,9.9,11.15,,47.59359,-54.27349
2017-11-25 20:10:00+00:00,218.0,219.0,10.61,11.66,,47.59359,-54.27349
2017-11-25 20:20:00+00:00,222.0,222.0,11.34,12.66,,47.59359,-54.27349
2017-11-25 20:30:00+00:00,223.0,225.0,11.28,12.93,,47.59359,-54.27349
2017-11-25 20:40:00+00:00,222.0,225.0,11.23,13.09,,47.59359,-54.27349
2017-11-25 20:50:00+00:00,219.0,221.0,11.53,12.8,,47.59359,-54.27349
2017-11-25 21:00:00+00:00,217.0,220.0,10.86,12.29,,47.59359,-54.27349
2017-11-25 21:10:00+00:00,211.0,211.0,10.25,11.28,,47.59359,-54.27349
2017-11-25 21:20:00+00:00,212.0,212.0,12.09,13.82,,47.59359,-54.27349
2017-11-25 21:30:00+00:00,218.0,215.0,11.76,13.8,,47.59359,-54.27349
2017-11-25 21:40:00+00:00,218.0,219.0,12.15,13.57,,47.59359,-54.27349
2017-11-25 21:50:00+00:00,217.0,221.0,11.01,12.33,,47.59359,-54.27349
2017-11-25 22:00:00+00:00,217.0,218.0,11.53,13.24,,47.59359,-54.27349
2017-11-25 22:10:00+00:00,217.0,216.0,11.02,12.82,,47.59359,-54.27349
2017-11-25 22:20:00+00:00,216.0,219.0,11.41,12.92,,47.59359,-54.27349
2017-11-25 22:30:00+00:00,216.0,221.0,10.69,12.6,,47.59359,-54.27349
2017-11-25 22:40:00+00:00,217.0,214.0,13.66,15.58,,47.59359,-54.27349
2017-11-25 22:50:00+00:00,218.0,216.0,12.58,14.72,,47.59359,-54.27349
2017-11-25 23:00:00+00:00,219.0,220.0,12.1,13.94,,47.59359,-54.27349
2017-11-25 23:10:00+00:00,218.0,218.0,12.13,13.4,,47.59359,-54.27349
2017-11-25 23:20:00+00:00,217.0,217.0,11.57,14.01,,47.59359,-54.27349
2017-11-25 23:30:00+00:00,218.0,222.0,11.74,13.84,,47.59359,-54.27349
2017-11-25 23:40:00+00:00,212.0,213.0,11.87,12.63,,47.59359,-54.27349
2017-11-25 23:50:00+00:00,214.0,217.0,11.04,12.91,,47.59359,-54.27349
